Кузьмовка

Россия / Красноярский край     62°18′43″N   92°06′53″E
темп.,
°C
ветер,
м/с
пор.,
м/с
влажн.,
%
обл.,
%
осадки,
мм/ч
давл.,
гПа
погр.,
м
13 мая, чт
чт1301:00−2в119549 0.0 101612
04:00−1вюв119467 0.0 101522
07:00+5юв247899 0.0 1014163
10:00+9ю3666100 0.1 1012588
13:00+10зюз3777100 0.8 10111031
16:00+14юз4956100 0.5 10081837
19:00+7юз1196100 1.4 101014
22:00+6з1294100 0.9 100959
14 мая, пт
пт1401:00+3ю1195100 0.9 100810
04:00+3ю1197100 0.0 100618
07:00+1зсз4997100 1.2 1007413
10:00+2зсз3472100 0.3 1008989
13:00+3зсз3466100 0.3 10091258
16:00+4зсз3466100 0.0 1010942
19:00+4зсз3677100 0.0 1011604
22:00+3юз249099 0.0 1011149
15 мая, сб
сб1501:000юз2286100 0.0 100929
04:000ююв1385100 0.0 100772
07:00+1ююз2599100 1.8 1004193
10:00+2з2899100 1.6 1004455
13:00+5сз576695 1.8 10061492
16:00+5сз585899 0.1 10091880
19:00+4сз48575 0.1 10111865
22:000сз38713 0.0 1013212
16 мая, вс
вс1601:00−2зсз28750 0.0 1014239
04:00−4зсз27780 0.0 1016251
07:00−2сз36583 0.0 1017851
10:00+1сз46410 0.0 10171316
13:00+4сз47355 0.0 10171801
16:00+4сз57355 0.0 10172091
19:00+3сз36425 0.0 10181899
22:00−2сз22640 0.0 101812
17 мая, пн
пн1701:00−3ссз11680 0.0 101810
04:00−4всв00716 0.0 101810
07:000в015245 0.0 1017341
10:00+3всв113618 0.0 10151225
13:00+5св22325 0.0 10131541
16:00+6ссв223090 0.0 10121748
19:00+6св333228 0.0 10121697
22:00+1всв225761 0.0 101321